Weather History for Thessaloniki, Greece

Change the Weather History Date:

Monday, December 3, 2012

  Actual Average Record
Temperature  
Mean Temperature 52 °F -  
Max Temperature 62 °F 52 °F 71 °F (2010)
Min Temperature 42 °F 37 °F 35 °F (1999)
Degree Days  
Heating Degree Days 13    
Growing Degree Days 2 (Base 50)    
Moisture  
Dew Point 41 °F    
Average Humidity 74    
Maximum Humidity 93    
Minimum Humidity 41    
Precipitation  
Precipitation 0.16 in 0.07 in - ()
Sea Level Pressure  
Sea Level Pressure 29.59 in    
Wind  
Wind Speed 9 mph ()    
Max Wind Speed 44 mph    
Max Gust Speed 58 mph    
Visibility 6.1 miles    
Events Rain , Thunderstorm    
Averages and records for this station are not official NWS values.
T = Trace of Precipitation, MM = Missing Value Source: Averaged Metar Reports

Daily Weather History Graph

Daily Weather History Graph

Search for Another Location

Airport:

Trip Planner

Search our weather history database for the weather conditions in past years. The results will help you decide how hot, cold, wet, or windy it might be!

Date:

Astronomy

Dec. 03, 2012 Rise Set
Actual Time 7:34 AM EET 5:01 PM EET
Civil Twilight 7:04 AM EET 5:31 PM EET
Nautical Twilight 6:30 AM EET 6:05 PM EET
Astronomical Twilight 5:57 AM EET 6:38 PM EET
Moon 9:30 PM EET (12/3) 10:47 AM EET (12/3)
Length of Visible Light 10h 27m
Length of Day
9h 27m
Waning Gibbous, 80% of the Moon is Illuminated
Dec 3
Waning Gibbous
Dec 6
Last Quarter
Dec 13
New
Dec 20
First Quarter
Dec 28
Full

Hourly Weather History & Observations

Time (EET) Temp. Windchill Dew Point Humidity Pressure Visibility Wind Dir Wind Speed Gust Speed Precip Events Conditions
12:20 AM 46.4 °F 43.5 °F 44.6 °F 93% 29.65 in 3.7 mi East 5.8 mph - N/A   Scattered Clouds
12:50 AM 46.4 °F 42.4 °F 44.6 °F 93% 29.65 in 5.0 mi East 8.1 mph - N/A   Partly Cloudy
1:20 AM 46.4 °F 42.4 °F 44.6 °F 93% 29.65 in 6.2 mi ESE 8.1 mph - N/A   Partly Cloudy
1:50 AM 46.4 °F 42.9 °F 42.8 °F 87% 29.62 in 6.2 mi ESE 6.9 mph - N/A   Partly Cloudy
2:00 AM 46 °F - 44 °F 89% 29.65 in 6 mi ESE 6.9 mph - -   Partly Cloudy
2:20 AM 46.4 °F 42.9 °F 42.8 °F 87% 29.62 in 6.2 mi ESE 6.9 mph - N/A   Partly Cloudy
2:50 AM 44.6 °F 42.2 °F 42.8 °F 93% 29.65 in 6.2 mi SE 4.6 mph - N/A   Partly Cloudy
3:20 AM 44.6 °F 42.2 °F 42.8 °F 93% 29.65 in 6.2 mi SE 4.6 mph - N/A   Partly Cloudy
3:50 AM 44.6 °F 42.2 °F 42.8 °F 93% 29.65 in 6.2 mi SE 4.6 mph - N/A   Partly Cloudy
4:20 AM 44.6 °F 42.2 °F 42.8 °F 93% 29.65 in 6.2 mi SE 4.6 mph - N/A   Partly Cloudy
4:50 AM 44.6 °F 41.4 °F 41.0 °F 87% 29.62 in 6.2 mi ESE 5.8 mph - N/A   Partly Cloudy
5:50 AM 42.8 °F 39.3 °F 39.2 °F 87% 29.65 in 6.2 mi SE 5.8 mph - N/A   Partly Cloudy
6:20 AM 42.8 °F 39.3 °F 39.2 °F 87% 29.65 in 6.2 mi SE 5.8 mph - N/A   Partly Cloudy
6:50 AM 42.8 °F - 39.2 °F 87% 29.65 in 6.2 mi Variable 2.3 mph - N/A   Partly Cloudy
7:20 AM 44.6 °F 40.7 °F 39.2 °F 81% 29.65 in 6.2 mi ESE 6.9 mph - N/A   Partly Cloudy
7:50 AM 42.8 °F 40.1 °F 39.2 °F 87% 29.65 in 6.2 mi East 4.6 mph - N/A   Partly Cloudy
8:00 AM 42 °F - 39 °F 84% 29.66 in 6 mi East 4.6 mph - -   Scattered Clouds
8:20 AM 44.6 °F 41.4 °F 41.0 °F 87% 29.65 in 6.2 mi ESE 5.8 mph - N/A   Partly Cloudy
8:50 AM 46.4 °F 42.4 °F 41.0 °F 81% 29.65 in 6.2 mi East 8.1 mph - N/A   Partly Cloudy
9:20 AM 48.2 °F - 42.8 °F 82% 29.65 in 6.2 mi ESE 6.9 mph - N/A   Partly Cloudy
9:50 AM 51.8 °F - 44.6 °F 76% 29.65 in 6.2 mi Variable 3.5 mph - N/A   Partly Cloudy
10:20 AM 53.6 °F - 44.6 °F 72% 29.65 in 6.2 mi Variable 3.5 mph - N/A   Partly Cloudy
10:50 AM 57.2 °F - 44.6 °F 63% 29.62 in 6.2 mi Variable 3.5 mph - N/A   Partly Cloudy
11:20 AM 60.8 °F - 48.2 °F 63% 29.62 in 6.2 mi Variable 3.5 mph - N/A   Partly Cloudy
11:50 AM 62.6 °F - 44.6 °F 52% 29.59 in 6.2 mi East 5.8 mph - N/A   Scattered Clouds
12:20 PM 60.8 °F - 44.6 °F 55% 29.59 in 6.2 mi SSE 9.2 mph - N/A   Scattered Clouds
12:50 PM 60.8 °F - 42.8 °F 52% 29.56 in 6.2 mi SSE 9.2 mph - N/A   Scattered Clouds
1:20 PM 62.6 °F - 42.8 °F 48% 29.56 in 6.2 mi SSE 10.4 mph - N/A   Scattered Clouds
1:50 PM 60.8 °F - 42.8 °F 52% 29.53 in 6.2 mi SSE 12.7 mph - N/A   Mostly Cloudy
2:00 PM 61 °F - 43 °F 41% 29.55 in 6 mi SSE 12.7 mph - -   Mostly Cloudy
2:20 PM 60.8 °F - 42.8 °F 52% 29.50 in 6.2 mi SE 11.5 mph - N/A   Scattered Clouds
2:50 PM 62.6 °F - 44.6 °F 52% 29.47 in 6.2 mi South 11.5 mph 23.0 mph N/A   Scattered Clouds
3:20 PM 59.0 °F - 44.6 °F 59% 29.50 in 6.2 mi SSW 13.8 mph - N/A   Mostly Cloudy
3:50 PM 53.6 °F - 48.2 °F 82% 29.50 in 6.2 mi NNW 19.6 mph 31.1 mph N/A Rain Light Rain
4:20 PM 50.0 °F - 44.6 °F 82% 29.50 in 6.2 mi West 4.6 mph - N/A Rain , Thunderstorm Light Thunderstorms and Rain
4:50 PM 50.0 °F - 46.4 °F 87% 29.50 in 6.2 mi West 4.6 mph - N/A   Mostly Cloudy
5:20 PM 50.0 °F - 46.4 °F 87% 29.50 in 6.2 mi Variable 3.5 mph - N/A   Mostly Cloudy
5:50 PM 50.0 °F - 46.4 °F 87% 29.50 in 6.2 mi East 6.9 mph - N/A   Mostly Cloudy
6:20 PM 50.0 °F - 46.4 °F 87% 29.50 in 6.2 mi Variable 2.3 mph - N/A   Overcast
6:50 PM 48.2 °F - 41.0 °F 76% 29.50 in 6.2 mi North 17.3 mph 28.8 mph N/A   Scattered Clouds
7:20 PM 46.4 °F 39.8 °F 35.6 °F 66% 29.50 in 6.2 mi North 16.1 mph 27.6 mph N/A   Scattered Clouds
7:50 PM 46.4 °F 38.3 °F 35.6 °F 66% 29.53 in 6.2 mi North 23.0 mph 34.5 mph N/A   Mostly Cloudy
8:00 PM 46 °F - 36 °F 57%  in 6 mi North 23.0 mph - -   Partly Cloudy
8:20 PM 44.6 °F 36.1 °F 33.8 °F 66% 29.53 in 6.2 mi North 21.9 mph 33.4 mph N/A   Mostly Cloudy
8:50 PM 44.6 °F 35.1 °F 33.8 °F 66% 29.53 in 6.2 mi North 27.6 mph 39.1 mph N/A   Mostly Cloudy
9:20 PM 44.6 °F 35.1 °F 32.0 °F 61% 29.56 in 6.2 mi North 27.6 mph 39.1 mph N/A   Scattered Clouds
9:50 PM 44.6 °F 34.4 °F 32.0 °F 61% 29.56 in 6.2 mi NNW 32.2 mph 48.3 mph N/A   Scattered Clouds
10:20 PM 44.6 °F 33.8 °F 32.0 °F 61% 29.59 in 6.2 mi NNW 36.8 mph 51.8 mph N/A   Mostly Cloudy
10:50 PM 44.6 °F 33.3 °F 32.0 °F 61% 29.62 in 6.2 mi NNW 40.3 mph 57.5 mph N/A   Mostly Cloudy
11:20 PM 44.6 °F 33.3 °F 32.0 °F 61% 29.62 in 6.2 mi NNW 40.3 mph 51.8 mph N/A   Mostly Cloudy
11:50 PM 44.6 °F 32.9 °F 32.0 °F 61% 29.62 in 6.2 mi NNW 43.7 mph 57.5 mph N/A   Mostly Cloudy